Location: ??????????
(42.1626°N, 44.1160°E)
Time: 11:49:34
(UTC+00:00)

Okean O Rocket - Pass Details

Date: 03 March 2021
Orbit: 623 x 644 km, 98.2° (Epoch: 21 April)

Event Time Altitude Azimuth Distance (km) Brightness Sun altitude
Rises 15:28:28 0° 191° (S) 2,892 5.2 -6.8°
Reaches altitude 10° 15:30:52 10° 202° (SSW) 1,989 4.5 -7.3°
Maximum altitude 15:34:40 30° 264° (W) 1,130 3.9 -8.0°
Drops below altitude 10° 15:38:30 10° 325° (NW) 2,003 4.7 -8.7°
Sets 15:40:56 0° 336° (NNW) 2,916 5.3 -9.1°
